| time (UTC) | temp C | wind direction | speed KPH | gust KPH | rain 1hr cm | rain 24hr cm | rain mn cm | humidity % | barometer mb |
| 20260506051025 | 7 | 350 | 0.0 | 6.4 | 0.00 | 0.00 | 0.00 | 82 | 1012.9 |
| 20260506050522 | 7 | 21 | 0.0 | 12.9 | 0.00 | 0.00 | 0.00 | 81 | 1012.9 |
| 20260506045020 | 7 | 292 | 1.6 | 8.0 | 0.00 | 0.00 | 0.00 | 82 | 1012.9 |
| 20260506044519 | 7 | 40 | 0.0 | 8.0 | 0.00 | 0.00 | 0.00 | 82 | 1012.9 |
| 20260506044018 | 7 | 24 | 0.0 | 8.0 | 0.00 | 0.00 | 0.00 | 82 | 1012.9 |
| 20260506043520 | 7 | 17 | 0.0 | 4.8 | 0.00 | 0.00 | 0.00 | 83 | 1012.9 |
| 20260506043017 | 7 | 16 | 0.0 | 4.8 | 0.00 | 0.00 | 0.00 | 82 | 1012.8 |
| 20260506042517 | 7 | 322 | 0.0 | 4.8 | 0.00 | 0.00 | 0.00 | 82 | 1012.8 |
| 20260506042016 | 7 | 21 | 0.0 | 4.8 | 0.00 | 0.00 | 0.00 | 82 | 1012.8 |
| 20260506041531 | 7 | 50 | 1.6 | 6.4 | 0.00 | 0.00 | 0.00 | 81 | 1012.8 |
| 20260506041014 | 7 | 76 | 0.0 | 9.7 | 0.00 | 0.00 | 0.00 | 82 | 1012.8 |
| 20260506040517 | 7 | 355 | 0.0 | 9.7 | 0.00 | 0.00 | 0.00 | 81 | 1012.8 |
| 20260506040013 | 7 | 5 | 1.6 | 4.8 | 0.00 | 0.00 | 0.00 | 82 | 1012.8 |
| 20260506035516 | 7 | 37 | 0.0 | 4.8 | 0.00 | 0.00 | 0.00 | 83 | 1012.8 |
| 20260506035012 | 7 | 20 | 0.0 | 4.8 | 0.00 | 0.00 | 0.00 | 83 | 1012.7 |
| 20260506034511 | 8 | 344 | 0.0 | 3.2 | 0.00 | 0.00 | 0.00 | 83 | 1012.8 |
| 20260506034013 | 8 | 24 | 0.0 | 4.8 | 0.00 | 0.00 | 0.00 | 83 | 1012.7 |
| 20260506033515 | 8 | 13 | 0.0 | 4.8 | 0.00 | 0.00 | 0.00 | 83 | 1012.7 |
| 20260506033010 | 8 | 329 | 0.0 | 8.0 | 0.00 | 0.00 | 0.00 | 83 | 1012.7 |
| 20260506032509 | 8 | 341 | 1.6 | 8.0 | 0.00 | 0.00 | 0.00 | 83 | 1012.7 |
| 20260506032011 | 8 | 51 | 0.0 | 3.2 | 0.00 | 0.00 | 0.00 | 83 | 1012.7 |
| 20260506031508 | 8 | 345 | 0.0 | 3.2 | 0.00 | 0.00 | 0.00 | 83 | 1012.7 |
| 20260506031009 | 8 | 9 | 0.0 | 3.2 | 0.00 | 0.00 | 0.00 | 82 | 1012.7 |
| 20260506030509 | 8 | 37 | 0.0 | 3.2 | 0.00 | 0.00 | 0.00 | 83 | 1012.7 |
| 20260506030006 | 8 | 23 | 0.0 | 4.8 | 0.00 | 0.00 | 0.00 | 83 | 1012.7 |
| 20260506025509 | 8 | 41 | 0.0 | 4.8 | 0.00 | 0.00 | 0.00 | 83 | 1012.7 |
| 20260506025007 | 8 | 351 | 0.0 | 4.8 | 0.00 | 0.00 | 0.00 | 83 | 1012.7 |
| 20260506024506 | 8 | 38 | 0.0 | 3.2 | 0.00 | 0.00 | 0.00 | 83 | 1012.6 |
| 20260506024005 | 8 | 329 | 0.0 | 3.2 | 0.00 | 0.00 | 0.00 | 83 | 1012.7 |
| 20260506023505 | 8 | 336 | 0.0 | 3.2 | 0.00 | 0.00 | 0.00 | 84 | 1012.7 |
| 20260506023004 | 8 | 9 | 0.0 | 3.2 | 0.00 | 0.00 | 0.00 | 84 | 1012.7 |
| 20260506022506 | 8 | 25 | 0.0 | 3.2 | 0.00 | 0.00 | 0.00 | 83 | 1012.7 |
| 20260506022004 | 8 | 347 | 0.0 | 4.8 | 0.00 | 0.00 | 0.00 | 83 | 1012.7 |
| 20260506021503 | 8 | 39 | 0.0 | 8.0 | 0.00 | 0.00 | 0.00 | 83 | 1012.9 |
| 20260506021002 | 8 | 49 | 0.0 | 6.4 | 0.00 | 0.00 | 0.00 | 83 | 1012.7 |
| 20260506020506 | 8 | 37 | 0.0 | 3.2 | 0.00 | 0.00 | 0.00 | 83 | 1012.8 |
| 20260506020002 | 8 | 350 | 0.0 | 0.0 | 0.00 | 0.00 | 0.00 | 83 | 1012.9 |
| 20260506015502 | 8 | 355 | 0.0 | 4.8 | 0.00 | 0.00 | 0.00 | 83 | 1012.9 |
| 20260506015005 | 8 | 57 | 0.0 | 4.8 | 0.00 | 0.00 | 0.00 | 83 | 1012.9 |
| 20260506014502 | 8 | 29 | 0.0 | 3.2 | 0.00 | 0.00 | 0.00 | 83 | 1012.8 |
| 20260506014001 | 8 | 360 | 0.0 | 4.8 | 0.00 | 0.00 | 0.00 | 83 | 1012.9 |
| 20260506013501 | 8 | 38 | 0.0 | 4.8 | 0.00 | 0.00 | 0.00 | 83 | 1012.8 |
| 20260506013001 | 8 | 19 | 0.0 | 4.8 | 0.00 | 0.00 | 0.00 | 82 | 1012.8 |
| 20260506012603 | 8 | 9 | 0.0 | 4.8 | 0.00 | 0.00 | 0.00 | 82 | 1012.7 |
| 20260506012058 | 8 | 30 | 1.6 | 8.0 | 0.00 | 0.00 | 0.00 | 81 | 1012.8 |
| 20260506011607 | 8 | 13 | 0.0 | 8.0 | 0.00 | 0.00 | 0.00 | 81 | 1012.8 |
| 20260506011058 | 8 | 55 | 3.2 | 8.0 | 0.00 | 0.00 | 0.00 | 81 | 1012.8 |
| 20260506010557 | 8 | 40 | 1.6 | 8.0 | 0.00 | 0.00 | 0.00 | 81 | 1012.9 |
| 20260506010057 | 8 | 15 | 3.2 | 8.0 | 0.00 | 0.00 | 0.00 | 80 | 1012.9 |
| 20260506005556 | 9 | 24 | 1.6 | 8.0 | 0.00 | 0.00 | 0.00 | 80 | 1012.9 |
| 20260506005056 | 9 | 336 | 1.6 | 8.0 | 0.00 | 0.00 | 0.00 | 80 | 1012.9 |
| 20260506004559 | 9 | 31 | 3.2 | 6.4 | 0.00 | 0.00 | 0.00 | 79 | 1013.0 |
| 20260506004054 | 9 | 15 | 1.6 | 6.4 | 0.00 | 0.00 | 0.00 | 79 | 1013.0 |
| 20260506003553 | 9 | 51 | 0.0 | 8.0 | 0.00 | 0.00 | 0.00 | 78 | 1013.0 |
| 20260506003053 | 9 | 34 | 1.6 | 9.7 | 0.00 | 0.00 | 0.00 | 78 | 1013.0 |
| 20260506002552 | 10 | 33 | 3.2 | 9.7 | 0.00 | 0.00 | 0.00 | 77 | 1013.0 |
| 20260506002051 | 10 | 39 | 1.6 | 9.7 | 0.00 | 0.00 | 0.00 | 77 | 1012.9 |
| 20260506001556 | 10 | 10 | 1.6 | 9.7 | 0.00 | 0.00 | 0.00 | 76 | 1012.9 |
| 20260506001050 | 10 | 49 | 3.2 | 12.9 | 0.00 | 0.00 | 0.00 | 76 | 1012.8 |
| 20260506000550 | 10 | 346 | 1.6 | 14.5 | 0.00 | 0.00 | 0.00 | 76 | 1012.9 |
| 20260506000056 | 10 | 9 | 3.2 | 9.7 | 0.00 | 0.00 | 0.00 | 75 | 1012.9 |
| 20260505235547 | 10 | 46 | 1.6 | 12.9 | 0.00 | 0.00 | 0.00 | 76 | 1012.8 |
| 20260505235047 | 10 | 337 | 3.2 | 12.9 | 0.00 | 0.00 | 0.00 | 75 | 1012.9 |
| 20260505234547 | 10 | 18 | 1.6 | 16.1 | 0.00 | 0.00 | 0.00 | 75 | 1012.9 |
| 20260505234044 | 10 | 17 | 4.8 | 16.1 | 0.00 | 0.00 | 0.00 | 75 | 1012.9 |
| 20260505233548 | 10 | 53 | 4.8 | 12.9 | 0.00 | 0.00 | 0.00 | 75 | 1012.8 |
| 20260505233050 | 10 | 57 | 3.2 | 9.7 | 0.00 | 0.00 | 0.00 | 75 | 1012.8 |
| 20260505232543 | 10 | 82 | 3.2 | 9.7 | 0.00 | 0.00 | 0.00 | 75 | 1012.8 |
| 20260505232045 | 10 | 42 | 3.2 | 9.7 | 0.00 | 0.00 | 0.00 | 75 | 1012.8 |
| 20260505231545 | 10 | 63 | 3.2 | 14.5 | 0.00 | 0.00 | 0.00 | 75 | 1012.8 |
| 20260505231041 | 11 | 11 | 4.8 | 14.5 | 0.00 | 0.00 | 0.00 | 75 | 1012.8 |
| 20260505230540 | 11 | 20 | 3.2 | 14.5 | 0.00 | 0.00 | 0.00 | 75 | 1012.8 |
| 20260505230107 | 11 | 37 | 3.2 | 9.7 | 0.00 | 0.00 | 0.00 | 75 | 1012.8 |
| 20260505225539 | 11 | 74 | 1.6 | 9.7 | 0.00 | 0.00 | 0.00 | 74 | 1012.8 |
| 20260505225039 | 11 | 111 | 3.2 | 16.1 | 0.00 | 0.00 | 0.00 | 74 | 1012.8 |
| 20260505224539 | 11 | 13 | 1.6 | 16.1 | 0.00 | 0.00 | 0.00 | 74 | 1012.7 |
| 20260505224037 | 11 | 34 | 1.6 | 12.9 | 0.00 | 0.00 | 0.00 | 74 | 1012.7 |
| 20260505223539 | 11 | 327 | 0.0 | 9.7 | 0.00 | 0.00 | 0.00 | 73 | 1012.7 |
| 20260505223042 | 11 | 44 | 1.6 | 12.9 | 0.00 | 0.00 | 0.00 | 73 | 1012.8 |
| 20260505222538 | 11 | 355 | 3.2 | 12.9 | 0.00 | 0.00 | 0.00 | 73 | 1012.7 |
| 20260505222043 | 11 | 348 | 3.2 | 9.7 | 0.00 | 0.00 | 0.00 | 73 | 1012.7 |
| 20260505221544 | 11 | 17 | 1.6 | 8.0 | 0.00 | 0.00 | 0.00 | 73 | 1012.7 |
| 20260505221037 | 11 | 9 | 1.6 | 9.7 | 0.00 | 0.00 | 0.00 | 73 | 1012.7 |
| 20260505220537 | 11 | 34 | 3.2 | 9.7 | 0.00 | 0.00 | 0.00 | 72 | 1012.7 |
| 20260505220050 | 11 | 26 | 1.6 | 8.0 | 0.00 | 0.00 | 0.00 | 72 | 1012.6 |
| 20260505215537 | 11 | 348 | 1.6 | 8.0 | 0.00 | 0.00 | 0.00 | 73 | 1012.5 |
| 20260505215036 | 11 | 37 | 1.6 | 9.7 | 0.00 | 0.00 | 0.00 | 73 | 1012.5 |
| 20260505214537 | 12 | 94 | 3.2 | 9.7 | 0.00 | 0.00 | 0.00 | 72 | 1012.6 |
| 20260505214035 | 12 | 28 | 3.2 | 9.7 | 0.00 | 0.00 | 0.00 | 73 | 1012.6 |
| 20260505213535 | 12 | 15 | 1.6 | 9.7 | 0.00 | 0.00 | 0.00 | 73 | 1012.6 |
| 20260505213036 | 12 | 17 | 1.6 | 9.7 | 0.00 | 0.00 | 0.00 | 73 | 1012.6 |
| 20260505212535 | 12 | 68 | 3.2 | 8.0 | 0.00 | 0.00 | 0.00 | 73 | 1012.5 |
| 20260505212035 | 12 | 20 | 1.6 | 12.9 | 0.00 | 0.00 | 0.00 | 74 | 1012.5 |
| 20260505211535 | 12 | 52 | 1.6 | 6.4 | 0.00 | 0.00 | 0.00 | 75 | 1012.5 |
| 20260505211035 | 12 | 19 | 1.6 | 6.4 | 0.00 | 0.00 | 0.00 | 74 | 1012.5 |
| 20260505210535 | 11 | 17 | 0.0 | 4.8 | 0.00 | 0.00 | 0.00 | 74 | 1012.5 |
| 20260505210037 | 11 | 63 | 1.6 | 4.8 | 0.00 | 0.00 | 0.00 | 74 | 1012.4 |
| 20260505205535 | 12 | 30 | 0.0 | 3.2 | 0.00 | 0.00 | 0.00 | 73 | 1012.4 |
| 20260505205035 | 12 | 349 | 0.0 | 4.8 | 0.00 | 0.00 | 0.00 | 72 | 1012.4 |
| 20260505204536 | 12 | 53 | 0.0 | 4.8 | 0.00 | 0.00 | 0.00 | 72 | 1012.3 |
| 20260505204034 | 12 | 346 | 0.0 | 4.8 | 0.00 | 0.00 | 0.00 | 70 | 1012.3 |
| 20260505203535 | 12 | 360 | 1.6 | 4.8 | 0.00 | 0.00 | 0.00 | 70 | 1012.3 |
| 20260505203033 | 12 | 22 | 1.6 | 4.8 | 0.00 | 0.00 | 0.00 | 70 | 1012.3 |
| 20260505202534 | 12 | 342 | 0.0 | 6.4 | 0.00 | 0.00 | 0.00 | 70 | 1012.2 |
| 20260505202033 | 12 | 9 | 1.6 | 8.0 | 0.00 | 0.00 | 0.00 | 70 | 1012.2 |
| 20260505201533 | 12 | 26 | 1.6 | 8.0 | 0.00 | 0.00 | 0.00 | 70 | 1012.2 |
| 20260505201035 | 12 | 340 | 1.6 | 9.7 | 0.00 | 0.00 | 0.00 | 70 | 1012.1 |
| 20260505200532 | 12 | 20 | 1.6 | 9.7 | 0.00 | 0.00 | 0.00 | 70 | 1012.1 |
| 20260505200039 | 12 | 30 | 1.6 | 9.7 | 0.00 | 0.00 | 0.00 | 70 | 1012.1 |
| 20260505195533 | 12 | 355 | 3.2 | 11.3 | 0.00 | 0.00 | 0.00 | 70 | 1012.1 |
| 20260505195132 | 12 | 346 | 1.6 | 6.4 | 0.00 | 0.00 | 0.00 | 70 | 1012.0 |
| 20260505194531 | 12 | 355 | 0.0 | 6.4 | 0.00 | 0.00 | 0.00 | 70 | 1012.0 |
| 20260505194031 | 12 | 331 | 3.2 | 6.4 | 0.00 | 0.00 | 0.00 | 70 | 1011.9 |
| 20260505193530 | 12 | 360 | 1.6 | 9.7 | 0.00 | 0.00 | 0.00 | 70 | 1011.9 |
| 20260505193034 | 12 | 341 | 3.2 | 9.7 | 0.00 | 0.00 | 0.00 | 70 | 1011.8 |
| 20260505192535 | 12 | 322 | 1.6 | 8.0 | 0.00 | 0.00 | 0.00 | 70 | 1011.8 |
| 20260505192032 | 12 | 5 | 3.2 | 8.0 | 0.00 | 0.00 | 0.00 | 70 | 1011.7 |
| 20260505191537 | 12 | 348 | 1.6 | 6.4 | 0.00 | 0.00 | 0.00 | 70 | 1011.7 |
| 20260505191029 | 12 | 355 | 1.6 | 6.4 | 0.00 | 0.00 | 0.00 | 70 | 1011.7 |
| 20260505190529 | 13 | 355 | 1.6 | 6.4 | 0.00 | 0.00 | 0.00 | 70 | 1011.6 |
| 20260505190029 | 13 | 16 | 1.6 | 6.4 | 0.00 | 0.00 | 0.00 | 70 | 1011.6 |
| 20260505185529 | 13 | 16 | 0.0 | 4.8 | 0.00 | 0.00 | 0.00 | 70 | 1011.5 |
| 20260505185032 | 13 | 342 | 1.6 | 6.4 | 0.00 | 0.00 | 0.00 | 70 | 1011.5 |
| 20260505184530 | 13 | 340 | 1.6 | 6.4 | 0.00 | 0.00 | 0.00 | 71 | 1011.5 |
| 20260505184029 | 13 | 345 | 0.0 | 6.4 | 0.00 | 0.00 | 0.00 | 70 | 1011.5 |
| 20260505183530 | 13 | 355 | 1.6 | 4.8 | 0.00 | 0.00 | 0.00 | 70 | 1011.5 |
| 20260505183035 | 13 | 5 | 0.0 | 6.4 | 0.00 | 0.00 | 0.00 | 71 | 1011.5 |
| 20260505182528 | 13 | 17 | 0.0 | 6.4 | 0.00 | 0.00 | 0.00 | 70 | 1011.4 |
| 20260505182029 | 13 | 342 | 0.0 | 3.2 | 0.00 | 0.00 | 0.00 | 70 | 1011.5 |
| 20260505181528 | 13 | 37 | 0.0 | 4.8 | 0.00 | 0.00 | 0.00 | 69 | 1011.5 |
| 20260505181027 | 13 | 360 | 0.0 | 6.4 | 0.00 | 0.00 | 0.00 | 69 | 1011.5 |
| 20260505180527 | 13 | 27 | 0.0 | 4.8 | 0.00 | 0.00 | 0.00 | 69 | 1011.4 |
| 20260505180029 | 13 | 325 | 0.0 | 3.2 | 0.00 | 0.00 | 0.00 | 69 | 1011.5 |
| 20260505175527 | 13 | 335 | 0.0 | 4.8 | 0.00 | 0.00 | 0.00 | 69 | 1011.5 |
| 20260505175027 | 13 | 340 | 1.6 | 4.8 | 0.00 | 0.00 | 0.00 | 69 | 1011.4 |
| 20260505174526 | 13 | 5 | 0.0 | 4.8 | 0.00 | 0.00 | 0.00 | 69 | 1011.4 |
| 20260505174026 | 13 | 355 | 1.6 | 4.8 | 0.00 | 0.00 | 0.00 | 70 | 1011.5 |
| 20260505173524 | 13 | 355 | 1.6 | 4.8 | 0.00 | 0.00 | 0.00 | 69 | 1011.4 |
| 20260505173024 | 13 | 5 | 1.6 | 4.8 | 0.00 | 0.00 | 0.00 | 69 | 1011.5 |
| 20260505172524 | 13 | 11 | 0.0 | 4.8 | 0.00 | 0.00 | 0.00 | 70 | 1011.5 |
| 20260505172025 | 13 | 360 | 0.0 | 3.2 | 0.00 | 0.00 | 0.00 | 70 | 1011.5 |
| 20260505171524 | 13 | 9 | 0.0 | 3.2 | 0.00 | 0.00 | 0.00 | 70 | 1011.5 |
| 20260505171026 | 13 | 355 | 0.0 | 3.2 | 0.00 | 0.00 | 0.00 | 70 | 1011.5 |
| 20260505170523 | 14 | 38 | 0.0 | 3.2 | 0.00 | 0.00 | 0.00 | 70 | 1011.6 |
| 20260505170030 | 14 | 346 | 0.0 | 6.4 | 0.00 | 0.00 | 0.00 | 69 | 1011.5 |
| 20260505165523 | 14 | 44 | 0.0 | 6.4 | 0.00 | 0.00 | 0.00 | 70 | 1011.5 |
| 20260505165025 | 14 | 28 | 0.0 | 6.4 | 0.00 | 0.00 | 0.00 | 70 | 1011.5 |
| 20260505164523 | 14 | 49 | 0.0 | 6.4 | 0.00 | 0.00 | 0.00 | 69 | 1011.6 |
| 20260505164023 | 14 | 36 | 0.0 | 4.8 | 0.00 | 0.00 | 0.00 | 68 | 1011.6 |
| 20260505163522 | 14 | 19 | 0.0 | 4.8 | 0.00 | 0.00 | 0.00 | 69 | 1011.6 |
| 20260505163022 | 14 | 54 | 0.0 | 3.2 | 0.00 | 0.00 | 0.00 | 67 | 1011.5 |
| 20260505162528 | 15 | 24 | 0.0 | 3.2 | 0.00 | 0.00 | 0.00 | 67 | 1011.6 |
| 20260505162022 | 15 | 36 | 0.0 | 4.8 | 0.00 | 0.00 | 0.00 | 68 | 1011.7 |
| 20260505161536 | 15 | 24 | 0.0 | 4.8 | 0.00 | 0.00 | 0.00 | 67 | 1011.7 |
| 20260505161022 | 15 | 36 | 1.6 | 6.4 | 0.00 | 0.00 | 0.00 | 68 | 1011.7 |
| 20260505160526 | 15 | 331 | 0.0 | 6.4 | 0.00 | 0.00 | 0.00 | 68 | 1011.7 |
| 20260505153019 | 15 | 18 | 1.6 | 6.4 | 0.00 | 0.00 | 0.00 | 69 | 1011.8 |
| 20260505152518 | 15 | 335 | 1.6 | 6.4 | 0.00 | 0.00 | 0.00 | 69 | 1011.7 |
| 20260505152020 | 14 | 315 | 0.0 | 4.8 | 0.00 | 0.00 | 0.00 | 69 | 1011.7 |
| 20260505151518 | 14 | 355 | 0.0 | 3.2 | 0.00 | 0.00 | 0.00 | 71 | 1011.8 |
| 20260505151017 | 14 | 346 | 0.0 | 6.4 | 0.00 | 0.00 | 0.00 | 71 | 1011.8 |
| 20260505150517 | 14 | 11 | 0.0 | 6.4 | 0.00 | 0.00 | 0.00 | 70 | 1011.8 |
| 20260505140513 | 15 | 345 | 0.0 | 3.2 | 0.00 | 0.00 | 0.00 | 69 | 1012.0 |
| 20260505125013 | 15 | 355 | 0.0 | 4.8 | 0.00 | 0.00 | 0.00 | 70 | 1012.4 |
| 20260505124512 | 15 | 5 | 0.0 | 3.2 | 0.00 | 0.00 | 0.00 | 70 | 1012.4 |
| 20260505124007 | 15 | 5 | 1.6 | 4.8 | 0.00 | 0.00 | 0.00 | 69 | 1012.4 |
| 20260505123505 | 15 | 28 | 0.0 | 4.8 | 0.00 | 0.00 | 0.00 | 70 | 1012.4 |
| 20260505123005 | 15 | 330 | 0.0 | 6.4 | 0.00 | 0.00 | 0.00 | 69 | 1012.4 |
| 20260505122506 | 15 | 349 | 3.2 | 6.4 | 0.00 | 0.00 | 0.00 | 68 | 1012.4 |
| 20260505122005 | 15 | 11 | 1.6 | 6.4 | 0.00 | 0.00 | 0.00 | 68 | 1012.4 |
| 20260505121514 | 14 | 21 | 1.6 | 9.7 | 0.00 | 0.00 | 0.00 | 70 | 1012.4 |
| 20260505121005 | 14 | 54 | 1.6 | 9.7 | 0.00 | 0.00 | 0.00 | 70 | 1012.4 |
| 20260505120505 | 14 | 20 | 1.6 | 9.7 | 0.00 | 0.00 | 0.00 | 70 | 1012.4 |
| 20260505120004 | 14 | 22 | 1.6 | 14.5 | 0.00 | 0.00 | 0.00 | 69 | 1012.3 |
| 20260505115502 | 15 | 340 | 1.6 | 14.5 | 0.00 | 0.00 | 0.00 | 68 | 1012.4 |
| 20260505115003 | 15 | 9 | 3.2 | 11.3 | 0.00 | 0.00 | 0.00 | 70 | 1012.4 |
| 20260505114503 | 14 | 38 | 1.6 | 8.0 | 0.00 | 0.00 | 0.00 | 71 | 1012.4 |
| 20260505114003 | 15 | 40 | 1.6 | 8.0 | 0.00 | 0.00 | 0.00 | 69 | 1012.4 |
| 20260505113502 | 15 | 329 | 1.6 | 6.4 | 0.00 | 0.00 | 0.00 | 69 | 1012.4 |
| 20260505113117 | 15 | 246 | 0.0 | 4.8 | 0.00 | 0.00 | 0.00 | 68 | 1012.4 |
| 20260505112559 | 16 | 355 | 1.6 | 4.8 | 0.00 | 0.00 | 0.00 | 69 | 1012.4 |
| 20260505112058 | 14 | 34 | 0.0 | 6.4 | 0.00 | 0.00 | 0.00 | 75 | 1012.5 |
| 20260505111558 | 13 | 316 | 1.6 | 12.9 | 0.00 | 0.00 | 0.00 | 74 | 1012.6 |
| 20260505111058 | 13 | 149 | 1.6 | 12.9 | 0.00 | 0.00 | 0.00 | 74 | 1012.7 |
| 20260505110600 | 13 | 40 | 1.6 | 6.4 | 0.00 | 0.00 | 0.00 | 72 | 1012.7 |
| 20260505110116 | 14 | 19 | 0.0 | 6.4 | 0.00 | 0.00 | 0.00 | 72 | 1012.7 |
| 20260505102051 | 13 | 39 | 1.6 | 9.7 | 0.00 | 0.00 | 0.00 | 75 | 1013.0 |
| 20260505101552 | 13 | 360 | 3.2 | 11.3 | 0.00 | 0.00 | 0.00 | 73 | 1013.0 |
| 20260505101050 | 13 | 41 | 1.6 | 8.0 | 0.00 | 0.00 | 0.00 | 74 | 1013.0 |
| 20260505100551 | 13 | 35 | 1.6 | 8.0 | 0.00 | 0.00 | 0.00 | 77 | 1013.1 |
| 20260505100050 | 13 | 5 | 1.6 | 8.0 | 0.00 | 0.00 | 0.00 | 78 | 1013.0 |
| 20260505095550 | 12 | 68 | 1.6 | 14.5 | 0.00 | 0.00 | 0.00 | 78 | 1013.0 |
| 20260505095049 | 12 | 360 | 1.6 | 14.5 | 0.00 | 0.00 | 0.00 | 78 | 1013.0 |
| 20260505094556 | 13 | 333 | 3.2 | 8.0 | 0.00 | 0.00 | 0.00 | 77 | 1013.1 |
| 20260505094048 | 13 | 340 | 0.0 | 6.4 | 0.00 | 0.00 | 0.00 | 76 | 1013.1 |
| 20260505093548 | 13 | 5 | 0.0 | 6.4 | 0.00 | 0.00 | 0.00 | 76 | 1013.1 |
| 20260505093053 | 13 | 9 | 1.6 | 6.4 | 0.00 | 0.00 | 0.00 | 78 | 1013.2 |
| 20260505092545 | 13 | 23 | 1.6 | 8.0 | 0.00 | 0.00 | 0.00 | 81 | 1013.2 |
| 20260505092044 | 12 | 51 | 1.6 | 8.0 | 0.00 | 0.00 | 0.00 | 81 | 1013.2 |
| 20260505091546 | 12 | 360 | 1.6 | 4.8 | 0.00 | 0.00 | 0.00 | 81 | 1013.1 |
| 20260505091044 | 12 | 80 | 0.0 | 6.4 | 0.00 | 0.00 | 0.00 | 82 | 1013.1 |
| 20260505090544 | 12 | 17 | 0.0 | 6.4 | 0.00 | 0.00 | 0.00 | 82 | 1013.1 |
| 20260505090046 | 12 | 22 | 0.0 | 6.4 | 0.00 | 0.00 | 0.00 | 81 | 1013.1 |
| 20260505085544 | 12 | 344 | 0.0 | 8.0 | 0.00 | 0.00 | 0.00 | 80 | 1013.0 |
| 20260505085043 | 12 | 24 | 1.6 | 8.0 | 0.00 | 0.00 | 0.00 | 78 | 1013.1 |
| 20260505084552 | 13 | 343 | 1.6 | 8.0 | 0.00 | 0.00 | 0.00 | 79 | 1013.2 |
| 20260505084042 | 12 | 55 | 1.6 | 6.4 | 0.00 | 0.00 | 0.00 | 79 | 1013.2 |
| 20260505083540 | 12 | 35 | 1.6 | 6.4 | 0.00 | 0.00 | 0.00 | 82 | 1013.2 |
| 20260505083051 | 12 | 34 | 0.0 | 6.4 | 0.00 | 0.00 | 0.00 | 81 | 1013.3 |
| 20260505082538 | 12 | 32 | 0.0 | 6.4 | 0.00 | 0.00 | 0.00 | 81 | 1013.4 |
| 20260505082038 | 12 | 40 | 1.6 | 8.0 | 0.00 | 0.00 | 0.00 | 81 | 1013.3 |
| 20260505081538 | 12 | 19 | 1.6 | 8.0 | 0.00 | 0.00 | 0.00 | 81 | 1013.4 |
| 20260505081038 | 12 | 59 | 0.0 | 6.4 | 0.00 | 0.00 | 0.00 | 81 | 1013.4 |
| 20260505080539 | 12 | 5 | 3.2 | 8.0 | 0.00 | 0.00 | 0.00 | 81 | 1013.3 |
| 20260505080046 | 12 | 13 | 1.6 | 9.7 | 0.00 | 0.00 | 0.00 | 82 | 1013.3 |
| 20260505075535 | 12 | 24 | 1.6 | 9.7 | 0.00 | 0.00 | 0.00 | 83 | 1013.2 |
| 20260505075035 | 12 | 315 | 4.8 | 9.7 | 0.00 | 0.00 | 0.00 | 83 | 1013.1 |
| 20260505074534 | 11 | 342 | 0.0 | 8.0 | 0.00 | 0.00 | 0.00 | 84 | 1013.3 |
| 20260505074033 | 11 | 13 | 1.6 | 8.0 | 0.00 | 0.00 | 0.00 | 84 | 1013.2 |
| 20260505073532 | 11 | 57 | 0.0 | 8.0 | 0.00 | 0.00 | 0.00 | 84 | 1013.2 |
| 20260505073035 | 11 | 340 | 0.0 | 4.8 | 0.00 | 0.00 | 0.00 | 85 | 1013.3 |
| 20260505072531 | 11 | 5 | 1.6 | 8.0 | 0.00 | 0.00 | 0.00 | 86 | 1013.4 |
| 20260505072031 | 11 | 63 | 1.6 | 8.0 | 0.00 | 0.00 | 0.00 | 86 | 1013.4 |
| 20260505071543 | 11 | 48 | 0.0 | 8.0 | 0.00 | 0.00 | 0.00 | 86 | 1013.4 |
| 20260505071032 | 11 | 19 | 3.2 | 8.0 | 0.00 | 0.00 | 0.00 | 86 | 1013.4 |
| 20260505070530 | 11 | 304 | 1.6 | 8.0 | 0.00 | 0.00 | 0.00 | 87 | 1013.4 |
| 20260505070029 | 11 | 53 | 0.0 | 6.4 | 0.00 | 0.00 | 0.00 | 87 | 1013.5 |
| 20260505065528 | 10 | 336 | 0.0 | 6.4 | 0.00 | 0.00 | 0.00 | 88 | 1013.5 |
| 20260505065026 | 10 | 324 | 1.6 | 6.4 | 0.00 | 0.00 | 0.00 | 88 | 1013.5 |
| 20260505064532 | 10 | 332 | 1.6 | 4.8 | 0.00 | 0.00 | 0.00 | 88 | 1013.5 |
| 20260505064027 | 10 | 334 | 1.6 | 6.4 | 0.00 | 0.00 | 0.00 | 89 | 1013.4 |
| 20260505063524 | 10 | 65 | 0.0 | 6.4 | 0.00 | 0.00 | 0.00 | 90 | 1013.4 |
| 20260505063023 | 10 | 17 | 0.0 | 3.2 | 0.00 | 0.00 | 0.00 | 91 | 1013.3 |
| 20260505062525 | 10 | 338 | 0.0 | 3.2 | 0.00 | 0.00 | 0.00 | 91 | 1013.3 |
| 20260505062021 | 9 | 9 | 0.0 | 0.0 | 0.00 | 0.00 | 0.00 | 91 | 1013.3 |
| 20260505061521 | 9 | 344 | 0.0 | 3.2 | 0.00 | 0.00 | 0.00 | 92 | 1013.3 |
| 20260505061020 | 9 | 334 | 0.0 | 3.2 | 0.00 | 0.00 | 0.00 | 92 | 1013.2 |
| 20260505060520 | 9 | 337 | 0.0 | 3.2 | 0.00 | 0.00 | 0.00 | 92 | 1013.3 |
| 20260505060027 | 8 | 346 | 0.0 | 4.8 | 0.00 | 0.00 | 0.00 | 92 | 1013.3 |
| 20260505055520 | 8 | 348 | 0.0 | 4.8 | 0.00 | 0.00 | 0.00 | 92 | 1013.3 |
| 20260505055017 | 8 | 17 | 0.0 | 4.8 | 0.00 | 0.00 | 0.00 | 93 | 1013.3 |
| 20260505054516 | 8 | 355 | 0.0 | 1.6 | 0.00 | 0.00 | 0.00 | 93 | 1013.3 |
| 20260505054015 | 8 | 360 | 0.0 | 3.2 | 0.00 | 0.00 | 0.00 | 93 | 1013.4 |
| 20260505053515 | 8 | 15 | 0.0 | 3.2 | 0.00 | 0.00 | 0.00 | 93 | 1013.4 |
| 20260505053014 | 8 | 30 | 0.0 | 3.2 | 0.00 | 0.00 | 0.00 | 92 | 1013.4 |
| 20260505052515 | 8 | 47 | 0.0 | 3.2 | 0.00 | 0.00 | 0.00 | 92 | 1013.3 |
| 20260505052012 | 8 | 5 | 0.0 | 3.2 | 0.00 | 0.00 | 0.00 | 92 | 1013.4 |